Weather History for KDOV - December, 2013

Change the Weather History Date:

Saturday, December 28, 2013

  Actual Average Record
Temperature  
Mean Temperature 43 °F -  
Max Temperature 56 °F 45 °F 69 °F (1984)
Min Temperature 30 °F 28 °F 11 °F (1950)
Degree Days  
Heating Degree Days 22    
Moisture  
Dew Point 31 °F    
Average Humidity 68    
Maximum Humidity 96    
Minimum Humidity 38    
Precipitation  
Precipitation 0.00 in - - ()
Sea Level Pressure  
Sea Level Pressure 30.24 in    
Wind  
Wind Speed 9 mph (SSW)    
Max Wind Speed 16 mph    
Max Gust Speed -    
Visibility 10 miles    
Events      
Averages and records for this station are not official NWS values.
T = Trace of Precipitation, MM = Missing Value Source: NWS Daily Summary

Daily Weather History Graph

Daily Weather History Graph

Search for Another Location

Airport or City:

Trip Planner

Search our weather history database for the weather conditions in past years. The results will help you decide how hot, cold, wet, or windy it might be!

Date:

Astronomy

Dec. 28, 2013 Rise Set
Actual Time 7:20 AM EST 4:46 PM EST
Civil Twilight 6:50 AM EST 5:16 PM EST
Nautical Twilight 6:16 AM EST 5:50 PM EST
Astronomical Twilight 5:44 AM EST 6:23 PM EST
Moon 2:55 AM EST 1:35 PM EST
Length of Visible Light 10h 26m
Length of Day
9h 26m
Waning Crescent, 19% of the Moon is Illuminated
Dec 28
Waning Crescent
Jan 1
New
Jan 7
First Quarter
Jan 15
Full
Jan 24
Last Quarter

Hourly Weather History & Observations

Time (EST) Temp. Windchill Dew Point Humidity Pressure Visibility Wind Dir Wind Speed Gust Speed Precip Events Conditions
12:58 AM 33.1 °F 27.7 °F 30.7 °F 91% 30.33 in 10.0 mi SSW 5.8 mph - N/A   Clear
1:58 AM 32.4 °F 26.0 °F 30.4 °F 92% 30.32 in 10.0 mi SSW 6.9 mph - N/A   Clear
2:58 AM 31.6 °F 24.4 °F 29.8 °F 93% 30.32 in 10.0 mi South 8.1 mph - N/A   Clear
3:58 AM 30.9 °F 23.5 °F 30.0 °F 96% 30.30 in 10.0 mi South 8.1 mph - N/A   Clear
4:58 AM 32.7 °F 25.7 °F 30.9 °F 93% 30.29 in 10.0 mi South 8.1 mph - N/A   Clear
5:58 AM 32.4 °F 25.3 °F 29.8 °F 90% 30.29 in 10.0 mi South 8.1 mph - N/A   Clear
6:58 AM 31.5 °F 24.9 °F 28.9 °F 90% 30.30 in 10.0 mi South 6.9 mph - N/A   Clear
7:58 AM 33.4 °F 26.6 °F 29.5 °F 85% 30.30 in 10.0 mi SSW 8.1 mph - N/A   Clear
8:58 AM 38.1 °F 32.3 °F 30.9 °F 75% 30.31 in 10.0 mi SSW 8.1 mph - N/A   Clear
9:58 AM 43.7 °F 39.1 °F 31.5 °F 62% 30.31 in 10.0 mi SSW 8.1 mph - N/A   Clear
10:58 AM 49.3 °F - 31.3 °F 50% 30.28 in 10.0 mi SW 11.5 mph - N/A   Clear
11:58 AM 53.1 °F - 32.0 °F 45% 30.24 in 10.0 mi SSW 12.7 mph - N/A   Clear
12:58 PM 55.8 °F - 32.7 °F 42% 30.20 in 10.0 mi SSW 16.1 mph - N/A   Clear
1:58 PM 56.5 °F - 33.4 °F 42% 30.17 in 10.0 mi SW 16.1 mph - N/A   Clear
2:58 PM 56.5 °F - 31.1 °F 38% 30.17 in 10.0 mi SSW 16.1 mph - N/A   Clear
3:58 PM 52.0 °F - 31.3 °F 45% 30.17 in 10.0 mi SSW 10.4 mph - N/A   Clear
4:58 PM 49.1 °F - 31.1 °F 50% 30.19 in 10.0 mi SSW 13.8 mph - N/A   Clear
5:58 PM 45.1 °F 40.3 °F 31.3 °F 58% 30.18 in 10.0 mi South 9.2 mph - N/A   Clear
6:58 PM 45.1 °F 40.3 °F 32.4 °F 61% 30.18 in 10.0 mi South 9.2 mph - N/A   Clear
7:58 PM 44.4 °F 39.5 °F 33.1 °F 64% 30.18 in 10.0 mi South 9.2 mph - N/A   Clear
8:58 PM 42.8 °F 38.6 °F 33.1 °F 69% 30.17 in 10.0 mi South 6.9 mph - N/A   Clear
10:58 PM 45.0 °F 40.1 °F 32.9 °F 63% 30.15 in 10.0 mi South 9.2 mph - N/A   Clear
11:59 PM 43.2 °F 39.0 °F 32.4 °F 66% 30.12 in 10.0 mi SSW 6.9 mph - N/A   Clear